Location: Camden Lake
(44.4269°N, 76.8469°W)
Time: 04:35:39
(UTC-05:00)

Daily predictions for brighter satellites

Satellite Brightness Start Highest point End
(mag) Time Altitude Azimuth Time Altitude Azimuth Time Altitude Azimuth
CZ-3 R/B 4.4 03:05:09 47° SSW 03:06:15 47° S 03:17:44 10° ESE
COSMOS 2455 4.4 03:24:33 24° N 03:26:56 31° NE 03:32:14 10° ESE
ADEOS II 4.0 03:27:55 10° NNE 03:29:58 24° NNE 03:29:58 24° NNE
Cosmos 2278 4.5 03:59:32 45° N 03:59:32 45° N 04:03:29 10° NNE
Okean O Rocket 3.0 03:57:06 10° NNE 04:01:01 37° E 04:01:01 37° E
Cosmos 1980 Rocket 2.5 04:12:53 53° SSE 04:13:50 62° ESE 04:19:25 10° NNE
Cosmos 1821 Rocket 3.9 04:13:54 61° S 04:15:06 85° E 04:21:23 10° N
ATLAS 5 CENTAUR R/B 3.6 04:18:03 20° SSE 04:19:54 26° ESE 04:23:55 10° ENE
MOS 1-B 4.1 04:16:32 10° NNE 04:22:20 78° WNW 04:22:30 77° W
Cosmos 2369 4.5 04:27:45 38° NNW 04:27:45 38° NNW 04:32:03 10° NNE
Cosmos 1535 Rocket 4.3 04:25:30 39° S 04:27:59 90° W 04:34:08 10° N
Cosmos 1048 Rocket 4.1 04:24:28 10° NNW 04:29:38 69° ENE 04:34:43 10° SSE
Cosmos 372 Rocket 4.2 04:32:35 38° S 04:34:27 67° ESE 04:39:34 10° NNE
IDEFIX/ARIANE 42P 4.4 04:31:58 10° NNE 04:36:34 30° E 04:41:06 10° SSE
BREEZE-M DEB (TANK) 2.8 04:39:13 50° NNE 04:39:13 50° NNE 04:44:49 10° E
SJ 16-02 1.2 04:39:17 85° SE 04:39:22 86° ESE 04:43:48 10° NNE
Cosmos 1733 Rocket 4.3 04:36:52 10° N 04:41:03 41° ENE 04:45:13 10° SSE
Cosmos 1697 Rocket 2.9 04:43:04 48° WNW 04:43:04 48° WNW 04:48:30 10° NNE
USA 215 4.2 04:40:45 10° S 04:45:00 28° SSW 04:45:00 28° SSW
Cosmos 1125 Rocket 3.4 04:46:13 34° SSW 04:48:33 87° ESE 04:53:47 10° NNE
Cosmos 2239 Rocket 4.5 04:48:01 44° WSW 04:49:31 54° WNW 04:55:34 10° N
SL-16 R/B 3.4 04:46:05 10° S 04:51:23 42° ESE 04:56:42 10° NE
Meteor 1-31 Rocket 2.6 04:47:38 10° N 04:51:27 83° NW 04:51:27 83° NW
Cosmos 1933 3.2 04:52:46 48° S 04:53:52 90° NNW 04:57:56 10° N
SJ-6F 4.3 04:50:06 10° NNE 04:54:13 89° SE 04:55:44 38° SSW
COSMO-SKYMED 1 3.5 04:52:25 10° SE 04:56:35 49° ENE 05:00:48 10° N
Cosmos 1605 Rocket 3.8 04:54:39 10° S 05:00:46 86° W 05:06:54 10° N
CZ-2C R/B 4.1 04:56:42 10° NNE 05:01:24 35° E 05:06:07 10° SSE
Okean-O 4.2 04:57:21 10° NNE 05:01:28 36° E 05:05:33 10° SSE
Meteor PRIRODA 4.0 04:59:33 10° N 05:02:36 48° NW 05:02:36 48° NW
Aureole 3 4.3 05:02:54 10° N 05:05:42 35° ENE 05:08:37 10° SSE
CZ-2C R/B 3.6 05:06:56 10° SSE 05:11:37 84° WSW 05:16:14 10° NNW
ADEOS II 3.9 05:09:03 10° NNW 05:10:56 15° NW 05:10:56 15° NW
COSMOS 2455 2.9 05:07:45 12° NW 05:13:12 56° WSW 05:19:04 10° SSE
Meteor 1-26 Rocket 4.5 05:07:39 10° S 05:13:31 75° E 05:19:19 10° NNE
CZ-4B R/B 3.3 05:10:49 10° N 05:16:09 55° WNW 05:21:32 10° SW
Cosmos 1707 Rocket 4.1 05:17:09 35° W 05:17:29 35° WNW 05:21:38 10° N
Cosmos 1606 4.3 05:14:32 10° SSE 05:18:03 36° E 05:21:34 10° NNE
Cosmos 494 Rocket 4.1 05:16:53 10° NNW 05:22:02 76° ENE 05:27:08 10° SSE
CZ-4B R/B 4.4 05:18:18 10° N 05:22:28 41° WNW 05:24:24 26° WSW
Cosmos 1633 3.3 05:19:30 10° N 05:23:06 56° E 05:26:42 10° SSE
Cosmos 1437 Rocket 4.4 05:20:44 10° N 05:24:33 38° ENE 05:28:17 10° SE
SKYMED 3 4.4 05:22:12 10° S 05:26:32 80° WSW 05:30:54 10° NNW
IRS-1C Rocket 4.2 05:21:59 10° N 05:27:08 55° WNW 05:32:15 10° SSW
Cosmos 2263 Rocket 2.2 05:22:14 10° NNW 05:27:56 86° ENE 05:33:38 10° SSE
Cosmos 1459 Rocket 4.5 05:23:42 10° S 05:29:53 65° E 05:36:10 10° NNE
Meteor 2-10 Rocket 4.4 05:30:11 24° W 05:30:54 25° WNW 05:35:02 10° NNW
Cosmos 2173 Rocket 4.4 05:27:16 10° S 05:33:23 68° E 05:39:28 10° NNE
Cosmos 1269 Rocket 4.3 05:29:32 10° NNW 05:34:30 42° WSW 05:39:26 10° S
Okean O Rocket 2.8 05:33:52 10° NNW 05:37:25 24° WNW 05:38:29 22° W
Cosmos 405 Rocket 2.9 05:35:15 10° SSW 05:39:05 48° WNW 05:42:50 10° N
Meteor 1-14 Rocket 4.3 05:35:14 10° NNW 05:41:13 74° W 05:47:05 10° S
Cosmos 1802 Rocket 4.5 05:35:00 10° S 05:41:18 67° E 05:47:34 10° NNE
Cosmos 2061 Rocket 4.4 05:35:55 10° S 05:42:02 68° E 05:48:12 10° NNE
Radarsat Rocket 4.1 05:37:10 10° NNE 05:43:03 81° ESE 05:49:17 10° SSW
SKYMED 2 3.7 05:40:23 10° S 05:44:36 51° W 05:48:51 10° NNW
Cosmos 2322 Rocket 2.2 05:42:27 10° SSW 05:48:07 73° WNW 05:53:51 10° NNE
PAYLOAD A 3.9 05:43:45 10° N 05:48:29 63° WNW 05:53:23 10° SSW
Cosmos 1844 Rocket 4.4 05:45:48 10° N 05:50:52 33° NE 05:55:56 10° ESE
Cosmos 405 4.2 05:48:33 10° NW 05:51:20 21° W 05:54:06 10° SW
NOAA 6 4.1 05:46:33 10° N 05:51:38 59° WNW 05:56:40 10° SSW
Sich 1 Rocket 3.7 05:48:47 10° N 05:53:12 79° E 05:57:34 10° SSE
ISS -0.7 05:52:10 10° SSE 05:53:44 13° SE 05:55:19 10° ESE
Cosmos 2360 Rocket 2.9 05:50:12 10° S 05:55:44 58° ESE 06:01:17 10° NNE
DMSP B5D1-3 4.5 05:52:32 10° S 05:57:35 67° WSW 06:02:41 10° NNW
Cosmos 1980 Rocket 3.3 05:54:41 14° W 05:58:17 24° NW 06:02:50 10° N
EO 1 Del DPAF 3.2 05:57:51 10° S 06:01:39 62° W 06:05:27 10° NNW
Meteor 1-25 Rocket 4.4 05:57:06 10° NNW 06:02:39 53° W 06:08:16 10° S
Landsat 4 3.9 05:59:17 10° S 06:02:51 45° W 06:06:27 10° NNW
Cosmos 1703 Rocket 3.6 05:58:49 10° S 06:03:18 89° WNW 06:07:49 10° N
Cosmos 1461 3.5 05:59:09 10° SSW 06:03:26 66° ESE 06:07:59 10° NE
Okean 2 Rocket 4.3 05:59:20 10° N 06:03:42 48° ENE 06:08:04 10° SSE
Cosmos 2242 Rocket 4.5 06:00:07 10° SW 06:04:07 29° WNW 06:08:10 10° NNW
ATLAS 5 CENTAUR R/B 2.2 05:59:51 10° WSW 06:04:16 44° NW 06:09:10 10° NNE
Lacrosse 4 Rocket 3.8 06:08:01 10° SSE 06:11:27 27° ESE 06:14:53 10° NE
Cosmos 1908 Rocket 3.9 06:11:33 10° NNW 06:15:44 44° W 06:19:52 10° SSW
IDEFIX/ARIANE 42P 3.1 06:11:25 10° N 06:16:12 37° WNW 06:20:55 10° SW
Aureole 2 Rocket 1.7 06:15:33 10° SSW 06:18:13 71° WNW 06:20:59 10° NNE
Cosmos 1733 Rocket 4.4 06:15:31 10° NW 06:18:31 18° W 06:21:31 10° SW
SJ 16-02 3.3 06:16:56 10° WNW 06:18:37 12° NW 06:20:18 10° NNW
Meteor 1-11 Rocket 4.3 06:13:42 10° N 06:19:39 69° ENE 06:25:35 10° SSE
Cosmos 2251 Rocket 3.7 06:16:50 10° NNW 06:22:00 55° WSW 06:27:10 10° S
SMAP 3.8 06:18:09 10° NNE 06:22:47 61° E 06:27:23 10° S
Thor Agena Rocket 3.8 06:19:04 10° SSE 06:24:19 81° ENE 06:29:33 10° NNW
Cosmos 1725 Rocket 4.2 06:18:22 10° S 06:24:41 86° E 06:31:03 10° N
GENESIS II 4.3 06:21:11 10° SW 06:25:02 56° NW 06:28:56 10° NNE
USA 229 DEB 4.0 06:20:13 10° NW 06:27:18 63° WSW 06:34:33 10° SSE
USA 229 3.9 06:20:19 10° NW 06:27:25 63° WSW 06:34:40 10° SSE
NOSS 3-1 (A) 4.5 06:21:44 10° NW 06:29:13 69° NE 06:37:37 10° SE
